Deer Park, WA

12:31 AM PDT on September 24, 2017 (GMT -0700)
Deer Park

Weather History for KDEW - July, 2012

Change the Weather History Date:

Tuesday, July 3, 2012

  Actual Average Record
Temperature  
Mean Temperature 57 °F 63 °F  
Max Temperature 69 °F 79 °F 100 °F (2015)
Min Temperature 44 °F 47 °F 33 °F (2003)
Degree Days  
Heating Degree Days 8 4  
Month to date heating degree days 9 12  
Since 1 June heating degree days 245 212  
Since 1 July heating degree days 9 12  
Cooling Degree Days 0 1  
Month to date cooling degree days 0 3  
Year to date cooling degree days 11 23  
Since 1 June cooling degree days 10 20  
Growing Degree Days 10 (Base 50)    
Moisture  
Dew Point 42 °F    
Average Humidity 55    
Maximum Humidity 86    
Minimum Humidity 24    
Precipitation  
Precipitation T in 0.05 in 0.17 in (2000)
Month to date precipitation T 0.16  
Year to date precipitation 16.23 11.86  
Sea Level Pressure  
Sea Level Pressure 29.86 in    
Wind  
Wind Speed 14 mph (SSW)    
Max Wind Speed 35 mph    
Max Gust Speed 44 mph    
Visibility 10 miles    
Events      
T = Trace of Precipitation, MM = Missing Value Source: NWS Daily Summary

Daily Weather History Graph

Daily Weather History Graph

Search for Another Location

Airport or City:

Trip Planner

Search our weather history database for the weather conditions in past years. The results will help you decide how hot, cold, wet, or windy it might be!

Date:

Astronomy

Jul. 03, 2012 Rise Set
Actual Time 4:56 AM PDT 8:51 PM PDT
Civil Twilight 4:15 AM PDT 9:32 PM PDT
Nautical Twilight 3:19 AM PDT 10:28 PM PDT
Astronomical Twilight 1:50 AM PDT 11:55 PM PDT
Moon 8:43 PM PDT (7/3) 4:58 AM PDT (7/3)
Length of Visible Light 17h 16m
Length of Day
15h 55m
Full, 100% of the Moon is Illuminated
Jul 3
Full
Jul 10
Last Quarter
Jul 18
New
Jul 26
First Quarter
Aug 1
Full

Hourly Weather History & Observations

Time (PDT) Temp. Dew Point Humidity Pressure Visibility Wind Dir Wind Speed Gust Speed Precip Events Conditions
12:53 AM 57.0 °F 54.0 °F 89% 29.70 in 10.0 mi Calm Calm - 0.00 in   Overcast
1:53 AM 57.9 °F 53.1 °F 84% 29.68 in 10.0 mi Calm Calm - N/A   Mostly Cloudy
2:53 AM 59.0 °F 50.0 °F 72% 29.69 in 10.0 mi South 9.2 mph - N/A   Overcast
3:53 AM 60.1 °F 50.0 °F 69% 29.68 in 10.0 mi South 15.0 mph - N/A   Overcast
4:53 AM 57.9 °F 48.0 °F 70% 29.72 in 10.0 mi South 13.8 mph - N/A   Partly Cloudy
5:53 AM 57.0 °F 46.9 °F 69% 29.77 in 10.0 mi SSE 11.5 mph - N/A   Overcast
6:53 AM 57.0 °F 48.0 °F 72% 29.79 in 10.0 mi South 10.4 mph - N/A   Overcast
7:53 AM 59.0 °F 48.9 °F 69% 29.81 in 10.0 mi South 10.4 mph - N/A   Overcast
8:53 AM 57.9 °F 46.9 °F 67% 29.84 in 10.0 mi South 18.4 mph 27.6 mph N/A   Overcast
9:53 AM 60.1 °F 46.0 °F 60% 29.86 in 10.0 mi SSW 19.6 mph 26.5 mph N/A   Overcast
10:53 AM 62.1 °F 44.1 °F 52% 29.87 in 10.0 mi SSW 20.7 mph 33.4 mph N/A   Overcast
11:53 AM 64.0 °F 43.0 °F 46% 29.87 in 10.0 mi SSW 23.0 mph 32.2 mph N/A   Mostly Cloudy
12:53 PM 66.0 °F 41.0 °F 40% 29.87 in 10.0 mi SSW 24.2 mph 34.5 mph 0.00 in   Scattered Clouds
1:53 PM 68.0 °F 37.0 °F 32% 29.89 in 10.0 mi SSW 23.0 mph 36.8 mph N/A   Partly Cloudy
2:53 PM 66.0 °F 33.1 °F 29% 29.90 in 10.0 mi SW 26.5 mph 35.7 mph N/A   Mostly Cloudy
3:53 PM 66.9 °F 33.1 °F 28% 29.91 in 10.0 mi WSW 23.0 mph 29.9 mph N/A   Scattered Clouds
4:53 PM 66.9 °F 32.0 °F 27% 29.93 in 10.0 mi WSW 21.9 mph 26.5 mph N/A   Clear
5:53 PM 66.9 °F 28.9 °F 24% 29.94 in 10.0 mi WSW 19.6 mph 27.6 mph N/A   Clear
6:53 PM 64.9 °F 33.1 °F 31% 29.96 in 10.0 mi WSW 12.7 mph - N/A   Clear
7:53 PM 63.0 °F 35.1 °F 35% 29.98 in 10.0 mi WSW 9.2 mph - N/A   Clear
8:53 PM 57.9 °F 36.0 °F 44% 30.00 in 10.0 mi Calm Calm - N/A   Clear
9:53 PM 51.1 °F 39.0 °F 63% 30.02 in 10.0 mi South 8.1 mph - N/A   Clear
10:53 PM 51.1 °F 39.0 °F 63% 30.01 in 10.0 mi SSW 6.9 mph - N/A   Clear
11:53 PM 50.0 °F 39.0 °F 66% 30.01 in 10.0 mi SW 3.5 mph - N/A   Clear